Time,TemperatureF,DewpointF,PressureIn,WindDirection,WindDirectionDegrees,WindSpeedMPH,WindSpeedGustMPH,Humidity,HourlyPrecipIn,Conditions,Clouds,dailyrainin,SoftwareType,DateUTC
2013-05-04 00:02:00,57.0,38.0,30.38,SSW,212,2.0,7.0,49,0.00,,,0.00,,2013-05-04 04:02:00,
2013-05-04 00:12:00,57.0,38.0,30.38,SSW,212,2.0,7.0,49,0.00,,,0.00,,2013-05-04 04:12:00,
2013-05-04 00:23:00,56.0,38.0,30.38,SSE,166,2.0,3.0,50,0.00,,,0.00,,2013-05-04 04:23:00,
2013-05-04 00:33:00,56.0,38.0,30.38,SSE,166,2.0,3.0,50,0.00,,,0.00,,2013-05-04 04:33:00,
2013-05-04 00:42:00,56.0,38.0,30.38,SSE,166,2.0,3.0,50,0.00,,,0.00,,2013-05-04 04:42:00,
2013-05-04 00:52:00,55.0,37.0,30.38,SE,135,2.0,3.0,51,0.00,,,0.00,,2013-05-04 04:52:00,
2013-05-04 01:02:00,55.0,38.0,30.37,South,183,2.0,2.0,53,0.00,,,0.00,,2013-05-04 05:02:00,
2013-05-04 01:12:00,54.0,38.0,30.37,SW,225,0.0,2.0,55,0.00,,,0.00,,2013-05-04 05:12:00,
2013-05-04 01:22:00,54.0,38.0,30.37,SW,225,0.0,2.0,55,0.00,,,0.00,,2013-05-04 05:22:00,
2013-05-04 01:32:00,53.0,37.0,30.37,SSE,150,0.0,2.0,54,0.00,,,0.00,,2013-05-04 05:32:00,
2013-05-04 01:43:00,53.0,37.0,30.37,SSE,150,0.0,2.0,54,0.00,,,0.00,,2013-05-04 05:43:00,
2013-05-04 01:52:00,53.0,37.0,30.37,WSW,248,1.0,1.0,55,0.00,,,0.00,,2013-05-04 05:52:00,
2013-05-04 02:01:00,53.0,38.0,30.36,WSW,248,1.0,1.0,56,0.00,,,0.00,,2013-05-04 06:01:00,
2013-05-04 02:11:00,53.0,38.0,30.36,WSW,248,1.0,1.0,56,0.00,,,0.00,,2013-05-04 06:11:00,
2013-05-04 02:21:00,52.0,37.0,30.35,SSE,150,0.0,1.0,57,0.00,,,0.00,,2013-05-04 06:21:00,
2013-05-04 02:32:00,52.0,37.0,30.35,SSE,150,0.0,1.0,57,0.00,,,0.00,,2013-05-04 06:32:00,
2013-05-04 02:42:00,52.0,37.0,30.35,SSE,150,0.0,1.0,57,0.00,,,0.00,,2013-05-04 06:42:00,
2013-05-04 02:52:00,51.0,36.0,30.35,SSE,147,0.0,1.0,57,0.00,,,0.00,,2013-05-04 06:52:00,
2013-05-04 03:01:00,51.0,36.0,30.35,NNE,30,0.0,0.0,57,0.00,,,0.00,,2013-05-04 07:01:00,
2013-05-04 03:11:00,51.0,36.0,30.35,NNE,30,0.0,0.0,57,0.00,,,0.00,,2013-05-04 07:11:00,
2013-05-04 03:21:00,51.0,37.0,30.34,East,97,0.0,1.0,58,0.00,,,0.00,,2013-05-04 07:21:00,
2013-05-04 03:32:00,51.0,37.0,30.34,WNW,302,0.0,0.0,59,0.00,,,0.00,,2013-05-04 07:32:00,
2013-05-04 03:42:00,51.0,37.0,30.34,WNW,302,0.0,0.0,59,0.00,,,0.00,,2013-05-04 07:42:00,
2013-05-04 03:52:00,50.0,37.0,30.34,WSW,240,0.0,0.0,61,0.00,,,0.00,,2013-05-04 07:52:00,
2013-05-04 04:01:00,50.0,37.0,30.34,SE,143,0.0,1.0,61,0.00,,,0.00,,2013-05-04 08:01:00,
2013-05-04 04:11:00,50.0,37.0,30.34,SE,143,0.0,1.0,61,0.00,,,0.00,,2013-05-04 08:11:00,
2013-05-04 04:21:00,49.0,36.0,30.34,SSE,158,0.0,2.0,61,0.00,,,0.00,,2013-05-04 08:21:00,
2013-05-04 04:32:00,49.0,37.0,30.33,SE,146,0.0,1.0,63,0.00,,,0.00,,2013-05-04 08:32:00,
2013-05-04 04:42:00,49.0,37.0,30.33,SE,146,0.0,1.0,63,0.00,,,0.00,,2013-05-04 08:42:00,
2013-05-04 04:52:00,49.0,37.0,30.33,South,180,0.0,2.0,63,0.00,,,0.00,,2013-05-04 08:52:00,
2013-05-04 05:02:00,49.0,37.0,30.33,ESE,114,0.0,2.0,63,0.00,,,0.00,,2013-05-04 09:02:00,
2013-05-04 05:11:00,49.0,37.0,30.33,ESE,114,0.0,2.0,63,0.00,,,0.00,,2013-05-04 09:11:00,
2013-05-04 05:22:00,49.0,37.0,30.33,SE,135,1.0,2.0,64,0.00,,,0.00,,2013-05-04 09:22:00,
2013-05-04 05:32:00,48.0,37.0,30.33,SSE,158,1.0,2.0,65,0.00,,,0.00,,2013-05-04 09:32:00,
2013-05-04 05:42:00,48.0,37.0,30.33,SSE,158,1.0,2.0,65,0.00,,,0.00,,2013-05-04 09:42:00,
2013-05-04 05:53:00,48.0,37.0,30.33,SSE,150,2.0,3.0,66,0.00,,,0.00,,2013-05-04 09:53:00,
2013-05-04 06:03:00,48.0,37.0,30.34,SE,143,2.0,3.0,66,0.00,,,0.00,,2013-05-04 10:03:00,
2013-05-04 06:12:00,48.0,37.0,30.34,SE,143,2.0,3.0,66,0.00,,,0.00,,2013-05-04 10:12:00,
2013-05-04 06:23:00,48.0,37.0,30.34,SSE,165,2.0,5.0,66,0.00,,,0.00,,2013-05-04 10:23:00,
2013-05-04 06:33:00,48.0,37.0,30.34,ESE,121,1.0,2.0,66,0.00,,,0.00,,2013-05-04 10:33:00,
2013-05-04 06:42:00,48.0,37.0,30.34,ESE,121,1.0,2.0,66,0.00,,,0.00,,2013-05-04 10:42:00,
2013-05-04 06:53:00,48.0,37.0,30.34,ESE,119,2.0,5.0,66,0.00,,,0.00,,2013-05-04 10:53:00,
2013-05-04 07:02:00,48.0,38.0,30.35,SSE,149,2.0,5.0,67,0.00,,,0.00,,2013-05-04 11:02:00,
2013-05-04 07:11:00,48.0,38.0,30.35,SSE,149,2.0,5.0,67,0.00,,,0.00,,2013-05-04 11:11:00,
2013-05-04 07:21:00,48.0,38.0,30.35,SE,143,2.0,5.0,68,0.00,,,0.00,,2013-05-04 11:21:00,
2013-05-04 07:32:00,49.0,39.0,30.35,SE,129,3.0,5.0,68,0.00,,,0.00,,2013-05-04 11:32:00,
2013-05-04 07:44:00,49.0,39.0,30.35,SE,129,3.0,5.0,68,0.00,,,0.00,,2013-05-04 11:44:00,
2013-05-04 08:03:00,50.0,40.0,30.35,SE,140,2.0,3.0,68,0.00,,,0.00,,2013-05-04 12:03:00,
2013-05-04 08:14:00,50.0,40.0,30.36,ESE,112,2.0,5.0,68,0.00,,,0.00,,2013-05-04 12:14:00,
2013-05-04 08:30:00,51.0,40.0,30.36,SE,135,3.0,5.0,67,0.00,,,0.00,,2013-05-04 12:30:00,
2013-05-04 08:42:00,52.0,41.0,30.36,SE,125,2.0,5.0,67,0.00,,,0.00,,2013-05-04 12:42:00,
2013-05-04 08:52:00,53.0,42.0,30.36,SE,135,2.0,5.0,66,0.00,,,0.00,,2013-05-04 12:52:00,
2013-05-04 09:01:00,53.0,42.0,30.36,SE,124,2.0,5.0,66,0.00,,,0.00,,2013-05-04 13:01:00,
2013-05-04 09:11:00,53.0,42.0,30.36,SE,124,2.0,5.0,66,0.00,,,0.00,,2013-05-04 13:11:00,
2013-05-04 09:21:00,55.0,43.0,30.36,SSE,167,2.0,5.0,63,0.00,,,0.00,,2013-05-04 13:21:00,
2013-05-04 09:32:00,55.0,42.0,30.35,South,177,1.0,2.0,62,0.00,,,0.00,,2013-05-04 13:32:00,
2013-05-04 09:42:00,55.0,42.0,30.35,South,177,1.0,2.0,62,0.00,,,0.00,,2013-05-04 13:42:00,
2013-05-04 09:52:00,57.0,43.0,30.35,NE,45,2.0,5.0,60,0.00,,,0.00,,2013-05-04 13:52:00,
2013-05-04 10:02:00,57.0,44.0,30.35,ESE,104,2.0,5.0,61,0.00,,,0.00,,2013-05-04 14:02:00,
2013-05-04 10:11:00,57.0,44.0,30.35,ESE,104,2.0,5.0,61,0.00,,,0.00,,2013-05-04 14:11:00,
2013-05-04 10:21:00,58.0,45.0,30.35,East,100,1.0,5.0,62,0.00,,,0.00,,2013-05-04 14:21:00,
2013-05-04 10:32:00,59.0,45.0,30.35,SSE,158,2.0,3.0,60,0.00,,,0.00,,2013-05-04 14:32:00,
2013-05-04 10:42:00,59.0,45.0,30.35,SSE,158,2.0,3.0,60,0.00,,,0.00,,2013-05-04 14:42:00,
2013-05-04 10:52:00,60.0,45.0,30.34,ENE,58,2.0,3.0,58,0.00,,,0.00,,2013-05-04 14:52:00,
2013-05-04 11:02:00,61.0,46.0,30.34,North,1,2.0,3.0,57,0.00,,,0.00,,2013-05-04 15:02:00,
2013-05-04 11:12:00,61.0,46.0,30.34,North,1,2.0,3.0,57,0.00,,,0.00,,2013-05-04 15:12:00,
2013-05-04 11:22:00,62.0,46.0,30.33,ENE,78,2.0,6.0,56,0.00,,,0.00,,2013-05-04 15:22:00,
2013-05-04 11:33:00,63.0,46.0,30.33,ENE,68,3.0,9.0,54,0.00,,,0.00,,2013-05-04 15:33:00,
2013-05-04 11:43:00,63.0,46.0,30.33,ENE,68,3.0,9.0,54,0.00,,,0.00,,2013-05-04 15:43:00,
2013-05-04 11:53:00,65.0,47.0,30.32,North,351,5.0,8.0,52,0.00,,,0.00,,2013-05-04 15:53:00,
2013-05-04 12:03:00,65.0,47.0,30.32,SE,136,3.0,7.0,52,0.00,,,0.00,,2013-05-04 16:03:00,
2013-05-04 12:12:00,65.0,47.0,30.32,SE,136,3.0,7.0,52,0.00,,,0.00,,2013-05-04 16:12:00,
2013-05-04 12:22:00,66.0,48.0,30.32,NE,35,2.0,5.0,52,0.00,,,0.00,,2013-05-04 16:22:00,
2013-05-04 12:33:00,68.0,49.0,30.31,NE,38,2.0,5.0,50,0.00,,,0.00,,2013-05-04 16:33:00,
2013-05-04 12:42:00,68.0,49.0,30.31,NE,38,2.0,5.0,50,0.00,,,0.00,,2013-05-04 16:42:00,
2013-05-04 12:52:00,70.0,49.0,30.31,ESE,110,2.0,9.0,48,0.00,,,0.00,,2013-05-04 16:52:00,
2013-05-04 13:02:00,71.0,49.0,30.30,ENE,57,5.0,7.0,46,0.00,,,0.00,,2013-05-04 17:02:00,
2013-05-04 13:12:00,71.0,49.0,30.30,ENE,57,5.0,7.0,46,0.00,,,0.00,,2013-05-04 17:12:00,
2013-05-04 13:22:00,73.0,50.0,30.30,SE,125,4.0,10.0,44,0.00,,,0.00,,2013-05-04 17:22:00,
2013-05-04 13:32:00,73.0,49.0,30.30,ENE,68,5.0,10.0,43,0.00,,,0.00,,2013-05-04 17:32:00,
2013-05-04 13:42:00,73.0,49.0,30.30,ENE,68,5.0,10.0,43,0.00,,,0.00,,2013-05-04 17:42:00,
2013-05-04 13:52:00,75.0,50.0,30.30,SE,125,3.0,8.0,42,0.00,,,0.00,,2013-05-04 17:52:00,
2013-05-04 14:01:00,75.0,49.0,30.30,NE,53,2.0,8.0,40,0.00,,,0.00,,2013-05-04 18:01:00,
2013-05-04 14:12:00,75.0,49.0,30.30,NE,53,2.0,8.0,40,0.00,,,0.00,,2013-05-04 18:12:00,
2013-05-04 14:22:00,77.0,49.0,30.29,SW,233,5.0,7.0,37,0.00,,,0.00,,2013-05-04 18:22:00,
2013-05-04 14:32:00,77.0,49.0,30.29,SE,127,5.0,7.0,38,0.00,,,0.00,,2013-05-04 18:32:00,
2013-05-04 14:42:00,77.0,49.0,30.29,SE,127,5.0,7.0,38,0.00,,,0.00,,2013-05-04 18:42:00,
2013-05-04 14:52:00,78.0,49.0,30.30,SE,143,5.0,10.0,36,0.00,,,0.00,,2013-05-04 18:52:00,
2013-05-04 15:01:00,79.0,48.0,30.31,SE,144,6.0,8.0,34,0.00,,,0.00,,2013-05-04 19:01:00,
2013-05-04 15:11:00,79.0,48.0,30.31,SE,144,6.0,8.0,34,0.00,,,0.00,,2013-05-04 19:11:00,
2013-05-04 15:21:00,80.0,48.0,30.32,WSW,252,5.0,12.0,33,0.00,,,0.00,,2013-05-04 19:21:00,
2013-05-04 15:32:00,80.0,47.0,30.32,ESE,106,5.0,9.0,32,0.00,,,0.00,,2013-05-04 19:32:00,
2013-05-04 15:42:00,80.0,47.0,30.32,ESE,106,5.0,9.0,32,0.00,,,0.00,,2013-05-04 19:42:00,
2013-05-04 15:52:00,80.0,44.0,30.32,ESE,123,5.0,7.0,28,0.00,,,0.00,,2013-05-04 19:52:00,
2013-05-04 16:02:00,81.0,47.0,30.32,South,188,3.0,9.0,30,0.00,,,0.00,,2013-05-04 20:02:00,
2013-05-04 16:11:00,81.0,47.0,30.32,South,188,3.0,9.0,30,0.00,,,0.00,,2013-05-04 20:11:00,
2013-05-04 16:22:00,82.0,46.0,30.31,ESE,123,6.0,8.0,28,0.00,,,0.00,,2013-05-04 20:22:00,
2013-05-04 16:32:00,82.0,47.0,30.31,SE,135,3.0,9.0,29,0.00,,,0.00,,2013-05-04 20:32:00,
2013-05-04 16:42:00,82.0,47.0,30.31,SE,135,3.0,9.0,29,0.00,,,0.00,,2013-05-04 20:42:00,
2013-05-04 16:52:00,83.0,48.0,30.30,SE,127,2.0,7.0,30,0.00,,,0.00,,2013-05-04 20:52:00,
2013-05-04 17:02:00,83.0,47.0,30.30,South,180,5.0,7.0,29,0.00,,,0.00,,2013-05-04 21:02:00,
2013-05-04 17:12:00,83.0,47.0,30.30,South,180,5.0,7.0,29,0.00,,,0.00,,2013-05-04 21:12:00,
2013-05-04 17:22:00,83.0,46.0,30.30,ESE,112,3.0,7.0,27,0.00,,,0.00,,2013-05-04 21:22:00,
2013-05-04 17:33:00,83.0,47.0,30.30,ENE,77,3.0,6.0,29,0.00,,,0.00,,2013-05-04 21:33:00,
2013-05-04 17:43:00,83.0,47.0,30.30,ENE,77,3.0,6.0,29,0.00,,,0.00,,2013-05-04 21:43:00,
2013-05-04 17:53:00,81.0,47.0,30.29,SE,145,3.0,6.0,31,0.00,,,0.00,,2013-05-04 21:53:00,
2013-05-04 18:03:00,74.0,41.0,30.29,East,90,2.0,8.0,31,0.00,,,0.00,,2013-05-04 22:03:00,
2013-05-04 18:12:00,74.0,41.0,30.29,East,90,2.0,8.0,31,0.00,,,0.00,,2013-05-04 22:12:00,
2013-05-04 18:22:00,72.0,41.0,30.29,ESE,111,2.0,6.0,32,0.00,,,0.00,,2013-05-04 22:22:00,
2013-05-04 18:33:00,71.0,40.0,30.29,East,98,3.0,7.0,33,0.00,,,0.00,,2013-05-04 22:33:00,
2013-05-04 18:42:00,71.0,40.0,30.29,East,98,3.0,7.0,33,0.00,,,0.00,,2013-05-04 22:42:00,
2013-05-04 18:52:00,69.0,39.0,30.21,South,180,3.0,6.0,34,0.00,,,0.00,,2013-05-04 22:52:00,
2013-05-04 19:02:00,69.0,39.0,30.25,SSE,152,3.0,6.0,34,0.00,,,0.00,,2013-05-04 23:02:00,
2013-05-04 19:12:00,69.0,39.0,30.25,SSE,152,3.0,6.0,34,0.00,,,0.00,,2013-05-04 23:12:00,
2013-05-04 19:22:00,68.0,40.0,30.28,SSE,158,3.0,5.0,36,0.00,,,0.00,,2013-05-04 23:22:00,
2013-05-04 19:32:00,67.0,39.0,30.29,SSE,164,2.0,5.0,36,0.00,,,0.00,,2013-05-04 23:32:00,
2013-05-04 19:42:00,67.0,39.0,30.29,SSE,164,2.0,5.0,36,0.00,,,0.00,,2013-05-04 23:42:00,
2013-05-04 19:52:00,66.0,39.0,30.22,South,171,3.0,8.0,37,0.00,,,0.00,,2013-05-04 23:52:00,
2013-05-04 20:02:00,66.0,40.0,30.21,SSE,151,3.0,7.0,38,0.00,,,0.00,,2013-05-05 00:02:00,
2013-05-04 20:11:00,66.0,40.0,30.21,SSE,151,3.0,7.0,38,0.00,,,0.00,,2013-05-05 00:11:00,
2013-05-04 20:22:00,65.0,39.0,30.21,SW,221,2.0,6.0,39,0.00,,,0.00,,2013-05-05 00:22:00,
2013-05-04 20:32:00,64.0,40.0,30.21,SW,219,2.0,3.0,41,0.00,,,0.00,,2013-05-05 00:32:00,
2013-05-04 20:42:00,64.0,40.0,30.21,SW,219,2.0,3.0,41,0.00,,,0.00,,2013-05-05 00:42:00,
2013-05-04 20:52:00,62.0,39.0,30.22,South,185,2.0,3.0,42,0.00,,,0.00,,2013-05-05 00:52:00,
2013-05-04 21:01:00,62.0,39.0,30.23,South,175,1.0,2.0,43,0.00,,,0.00,,2013-05-05 01:01:00,
2013-05-04 21:11:00,62.0,39.0,30.23,South,175,1.0,2.0,43,0.00,,,0.00,,2013-05-05 01:11:00,
2013-05-04 21:21:00,61.0,39.0,30.23,SSE,166,1.0,3.0,44,0.00,,,0.00,,2013-05-05 01:21:00,
2013-05-04 21:32:00,61.0,40.0,30.23,SSE,158,2.0,6.0,46,0.00,,,0.00,,2013-05-05 01:32:00,
2013-05-04 21:42:00,61.0,40.0,30.23,SSE,158,2.0,6.0,46,0.00,,,0.00,,2013-05-05 01:42:00,
2013-05-04 21:52:00,60.0,40.0,30.24,SSE,158,2.0,5.0,47,0.00,,,0.00,,2013-05-05 01:52:00,
2013-05-04 22:02:00,59.0,39.0,30.24,South,188,2.0,5.0,47,0.00,,,0.00,,2013-05-05 02:02:00,
2013-05-04 22:11:00,59.0,39.0,30.24,South,188,2.0,5.0,47,0.00,,,0.00,,2013-05-05 02:11:00,
2013-05-04 22:22:00,58.0,38.0,30.25,SSE,150,2.0,6.0,48,0.00,,,0.00,,2013-05-05 02:22:00,
2013-05-04 22:32:00,58.0,38.0,30.25,SSE,149,2.0,6.0,48,0.00,,,0.00,,2013-05-05 02:32:00,
2013-05-04 22:42:00,58.0,38.0,30.25,SSE,149,2.0,6.0,48,0.00,,,0.00,,2013-05-05 02:42:00,
2013-05-04 22:52:00,58.0,39.0,30.25,SE,135,2.0,5.0,50,0.00,,,0.00,,2013-05-05 02:52:00,
2013-05-04 23:01:00,57.0,38.0,30.25,East,98,2.0,3.0,49,0.00,,,0.00,,2013-05-05 03:01:00,
2013-05-04 23:11:00,57.0,38.0,30.25,East,98,2.0,3.0,49,0.00,,,0.00,,2013-05-05 03:11:00,
2013-05-04 23:22:00,57.0,39.0,30.25,SE,135,3.0,6.0,50,0.00,,,0.00,,2013-05-05 03:22:00,
2013-05-04 23:33:00,57.0,39.0,30.25,SE,135,3.0,7.0,50,0.00,,,0.00,,2013-05-05 03:33:00,
2013-05-04 23:42:00,57.0,39.0,30.25,SE,135,3.0,7.0,50,0.00,,,0.00,,2013-05-05 03:42:00,
2013-05-04 23:53:00,56.0,38.0,30.25,SSE,158,3.0,7.0,51,0.00,,,0.00,,2013-05-05 03:53:00,